W2CJS Weather Reports


Display with metric or nautical units.
time (UTC)temp
F
wind
direction
speed
MPH
gust
MPH
rain 1hr
in
rain 24hr
in
rain mn
in
humidity
%
barometer
mb
20260903090003 65 221 1.0 5.0 0.00 0.21 0.17 95 1012.9
20260903085003 65 210 2.0 4.0 0.00 0.21 0.17 95 1012.9
20260903084003 65 210 2.0 4.0 0.00 0.21 0.17 95 1012.9
20260903083024 65 210 1.0 4.0 0.00 0.21 0.17 95 1013.1
20260903082024 65 210 1.0 4.0 0.00 0.21 0.17 95 1013.2
20260903081003 65 210 1.0 4.0 0.00 0.21 0.17 95 1013.3
20260903080003 65 227 2.0 7.0 0.00 0.21 0.17 95 1013.3
20260903075003 65 228 0.0 1.0 0.00 0.21 0.17 95 1013.3
20260903074003 65 0 0.0 0.0 0.01 0.21 0.17 95 1013.3
20260903073003 65 0 0.0 0.0 0.01 0.21 0.17 95 1013.3
20260903072003 65 0 0.0 0.0 0.01 0.21 0.17 95 1013.2
20260903071003 65 228 0.0 2.0 0.01 0.21 0.17 95 1013.4
20260903070003 65 229 1.0 5.0 0.01 0.21 0.17 95 1013.4
20260903065003 65 195 0.0 4.0 0.01 0.21 0.17 94 1013.4
20260903064003 65 142 0.0 3.0 0.00 0.20 0.16 94 1013.4
20260903063004 65 132 0.0 6.0 0.00 0.20 0.16 94 1013.2
20260903062024 65 108 0.0 6.0 0.00 0.20 0.16 94 1013.2
20260903061003 65 0 0.0 0.0 0.00 0.20 0.16 94 1013.3
20260903060003 65 227 2.0 5.0 0.00 0.20 0.16 94 1013.3
20260903055003 65 226 3.0 7.0 0.00 0.20 0.16 94 1013.3
20260903054003 65 230 3.0 9.0 0.02 0.20 0.16 94 1013.3
20260903053003 65 225 2.0 8.0 0.08 0.20 0.16 94 1013.2
20260903052003 65 224 4.0 12.0 0.13 0.20 0.16 94 1013.1
20260903051024 65 222 3.0 11.0 0.15 0.20 0.16 95 1013.1
20260903050003 65 228 1.0 4.0 0.15 0.20 0.16 94 1013.3
20260903045003 65 229 0.0 3.0 0.16 0.20 0.16 94 1013.4
20260903044003 65 230 2.0 4.0 0.15 0.18 0.14 94 1013.2
20260903043003 65 231 0.0 2.0 0.09 0.11 0.07 94 1013.4
20260903042003 65 231 0.0 3.0 0.05 0.07 0.03 94 1013.1
20260903041003 65 0 0.0 0.0 0.04 0.05 0.01 93 1013.0
20260903040004 65 231 0.0 1.0 0.03 0.04 0.00 93 1013.1
20260903035003 65 231 0.0 3.0 0.03 0.04 0.04 92 1013.1
20260903034003 65 229 1.0 6.0 0.02 0.03 0.03 92 1013.1
20260903033003 65 227 1.0 8.0 0.01 0.02 0.02 92 1013.5
20260903032003 65 217 2.0 4.0 0.01 0.02 0.02 91 1013.8
20260903031024 66 218 2.0 6.0 0.00 0.01 0.01 89 1013.7
20260903030003 66 229 3.0 7.0 0.00 0.01 0.01 88 1013.4
20260903025003 66 230 4.0 8.0 0.00 0.01 0.01 88 1013.1
20260903024003 66 240 4.0 10.0 0.00 0.01 0.01 88 1013.6
20260903023003 66 241 3.0 7.0 0.00 0.01 0.01 89 1013.7
20260903022005 66 231 3.0 7.0 0.01 0.01 0.01 89 1013.9
20260903021003 65 234 3.0 14.0 0.01 0.01 0.01 89 1014.2
20260903020003 65 249 0.0 3.0 0.01 0.01 0.01 90 1014.1
20260903015003 65 0 0.0 0.0 0.01 0.01 0.01 90 1013.8
20260903014003 65 235 1.0 6.0 0.01 0.01 0.01 89 1014.0
20260903013024 65 233 2.0 9.0 0.01 0.01 0.01 90 1014.3
20260903012003 65 222 1.0 3.0 0.00 0.00 0.00 89 1014.7
20260903011003 65 222 2.0 3.0 0.00 0.00 0.00 89 1014.8
20260903010003 65 221 0.0 4.0 0.00 0.00 0.00 89 1015.1
20260903005003 65 224 1.0 6.0 0.00 0.00 0.00 89 1015.3
20260903004003 65 233 1.0 8.0 0.00 0.00 0.00 90 1015.3
20260903003024 65 240 1.0 8.0 0.00 0.00 0.00 89 1015.3
20260903002003 65 240 2.0 7.0 0.00 0.00 0.00 89 1015.5
20260903001003 65 235 2.0 8.0 0.00 0.00 0.00 89 1015.6
20260903000003 65 241 1.0 4.0 0.00 0.00 0.00 89 1015.5
20260902235003 65 0 0.0 0.0 0.00 0.00 0.00 89 1015.2
20260902234003 65 55 0.0 3.0 0.00 0.00 0.00 89 1014.8
20260902233003 65 116 0.0 4.0 0.00 0.00 0.00 89 1014.3
20260902232003 65 148 0.0 2.0 0.00 0.00 0.00 88 1014.6
20260902231003 65 227 2.0 11.0 0.00 0.00 0.00 88 1014.6
20260902230003 65 277 1.0 4.0 0.00 0.00 0.00 87 1014.6
20260902225003 66 119 1.0 4.0 0.00 0.00 0.00 87 1014.9
20260902224003 66 55 1.0 6.0 0.00 0.00 0.00 86 1015.3
20260902223024 66 0 0.0 0.0 0.00 0.00 0.00 86 1015.2
20260902222003 66 19 0.0 2.0 0.00 0.00 0.00 86 1015.3
20260902221024 66 9 1.0 4.0 0.00 0.00 0.00 86 1015.8
20260902220024 67 246 1.0 3.0 0.00 0.00 0.00 85 1016.2
20260902215003 66 238 2.0 8.0 0.00 0.00 0.00 85 1016.3
20260902214003 66 252 2.0 7.0 0.00 0.00 0.00 85 1016.4
20260902213024 67 286 1.0 5.0 0.00 0.00 0.00 85 1016.8
20260902212003 67 33 1.0 4.0 0.00 0.00 0.00 84 1016.9
20260902211003 68 227 0.0 3.0 0.00 0.00 0.00 84 1017.3
20260902210003 68 247 1.0 7.0 0.00 0.00 0.00 82 1017.2
20260902205003 69 59 1.0 4.0 0.00 0.00 0.00 82 1017.1
20260902204003 69 53 1.0 6.0 0.00 0.00 0.00 80 1016.8
20260902203003 70 7 1.0 5.0 0.00 0.00 0.00 80 1016.5
20260902202003 70 35 1.0 5.0 0.00 0.00 0.00 81 1016.2
20260902201003 70 54 1.0 9.0 0.00 0.00 0.00 82 1016.6
20260902200003 70 22 2.0 5.0 0.00 0.00 0.00 80 1016.6
20260902195003 70 340 1.0 4.0 0.00 0.00 0.00 81 1016.6
20260902194003 69 9 1.0 5.0 0.00 0.00 0.00 83 1016.8
20260902193003 69 41 2.0 6.0 0.00 0.00 0.00 83 1017.3
20260902192004 69 28 2.0 5.0 0.00 0.00 0.00 83 1017.2
20260902191003 69 43 2.0 6.0 0.00 0.00 0.00 83 1016.9
20260902190003 69 355 1.0 5.0 0.00 0.00 0.00 82 1017.1
20260902185003 70 307 1.0 5.0 0.00 0.00 0.00 82 1017.3
20260902184024 70 54 1.0 9.0 0.00 0.00 0.00 84 1017.4
20260902183003 68 61 2.0 8.0 0.00 0.00 0.00 88 1017.6
20260902182004 67 89 1.0 4.0 0.00 0.00 0.00 88 1017.9
20260902181003 67 41 0.0 3.0 0.00 0.00 0.00 87 1018.0
20260902180005 67 55 1.0 4.0 0.00 0.00 0.00 86 1018.1
20260902175003 67 61 1.0 3.0 0.00 0.00 0.00 86 1018.0
20260902174003 68 65 1.0 4.0 0.00 0.00 0.00 86 1018.0
20260902173003 68 51 1.0 4.0 0.00 0.00 0.00 85 1018.1
20260902172024 68 314 1.0 3.0 0.00 0.00 0.00 85 1018.1
20260902171024 68 27 1.0 4.0 0.00 0.00 0.00 85 1018.0
20260902170003 69 38 1.0 3.0 0.00 0.00 0.00 84 1017.8
20260902165003 70 13 1.0 5.0 0.00 0.00 0.00 83 1017.7
20260902164003 70 284 1.0 6.0 0.00 0.00 0.00 83 1017.8
20260902163003 70 305 1.0 3.0 0.00 0.00 0.00 83 1017.6
20260902162004 70 351 1.0 3.0 0.00 0.00 0.00 83 1017.5
20260902161003 70 38 1.0 5.0 0.00 0.00 0.00 82 1017.6
20260902160005 71 250 0.0 2.0 0.00 0.00 0.00 83 1017.8
20260902155024 71 250 0.0 1.0 0.00 0.00 0.00 83 1017.9
20260902154024 71 40 1.0 5.0 0.00 0.00 0.00 83 1017.9
20260902153003 70 60 2.0 8.0 0.00 0.00 0.00 82 1017.8
20260902152003 71 48 1.0 4.0 0.00 0.00 0.00 83 1017.9
20260902151003 70 45 1.0 5.0 0.00 0.00 0.00 84 1018.3
20260902150003 70 69 1.0 4.0 0.00 0.00 0.00 83 1018.6
20260902145003 70 32 1.0 3.0 0.00 0.00 0.00 84 1018.6
20260902144003 69 53 0.0 3.0 0.00 0.00 0.00 85 1018.5
20260902143003 69 53 0.0 3.0 0.00 0.00 0.00 87 1018.8
20260902142003 68 0 0.0 0.0 0.00 0.00 0.00 86 1019.1
20260902141024 68 51 0.0 1.0 0.00 0.00 0.00 87 1019.2
20260902140003 68 0 0.0 0.0 0.00 0.00 0.00 89 1018.9
20260902135003 67 38 0.0 3.0 0.00 0.00 0.00 89 1018.6
20260902134003 67 31 0.0 3.0 0.00 0.00 0.00 88 1018.6
20260902133003 66 66 2.0 6.0 0.00 0.00 0.00 89 1018.4
20260902132003 66 63 0.0 3.0 0.00 0.01 0.00 91 1018.6
20260902131003 65 0 0.0 0.0 0.00 0.03 0.00 92 1018.7
20260902130003 65 63 0.0 3.0 0.00 0.03 0.00 93 1018.8
20260902125003 65 45 1.0 4.0 0.00 0.03 0.00 93 1018.4
20260902124003 64 34 0.0 4.0 0.00 0.03 0.00 93 1018.3
20260902123003 64 84 1.0 6.0 0.00 0.05 0.00 95 1018.3
20260902122003 64 0 0.0 0.0 0.00 0.05 0.00 96 1018.3
20260902121003 64 279 1.0 5.0 0.00 0.05 0.00 96 1018.2
20260902120003 64 46 0.0 2.0 0.00 0.05 0.00 97 1018.3
20260902115003 63 0 0.0 0.0 0.00 0.05 0.00 97 1018.0
20260902114003 63 0 0.0 0.0 0.00 0.05 0.00 97 1018.1
20260902113024 63 0 0.0 0.0 0.00 0.05 0.00 97 1017.9
20260902112003 62 0 0.0 0.0 0.00 0.05 0.00 97 1017.9
20260902111003 62 0 0.0 0.0 0.00 0.05 0.00 96 1017.9
20260902110004 62 0 0.0 0.0 0.00 0.05 0.00 96 1018.0
20260902105003 62 0 0.0 0.0 0.00 0.05 0.00 96 1018.2
20260902104003 62 0 0.0 0.0 0.00 0.05 0.00 96 1018.1
20260902103003 62 46 0.0 1.0 0.00 0.05 0.00 96 1018.2
20260902102003 62 46 0.0 2.0 0.00 0.05 0.00 96 1018.2
20260902101003 62 0 0.0 0.0 0.00 0.07 0.00 96 1018.1
20260902100003 62 46 0.0 2.0 0.00 0.07 0.00 96 1018.1
20260902095003 61 0 0.0 0.0 0.00 0.07 0.00 96 1018.1
20260902094024 61 0 0.0 0.0 0.00 0.07 0.00 96 1018.1
20260902093003 61 0 0.0 0.0 0.00 0.07 0.00 96 1018.1
20260902092003 62 46 0.0 3.0 0.00 0.07 0.00 96 1018.1
20260902091024 61 0 0.0 0.0 0.00 0.07 0.00 96 1018.1